When you browse on this site, cookies collect data to enhance your experience and personalize the content and advertising you see.
Visit our Privacy Policy to learn more. By continuing to use the site, you agree to this use of cookies and data.

Hourly Weather Newcastle

Today, 5 August, Wednesday

Time Temperature Precipitation Wind Pressure Humidity
00:00 +8°C° 0 mm 4 mps 759 mmHg 77%
01:00 +7°C° 0 mm 4 mps 759 mmHg 80%
02:00 +7°C° 0 mm 4 mps 759 mmHg 79%
03:00 +6°C° 0 mm 4 mps 759 mmHg 77%
04:00 +5°C° 0 mm 4 mps 759 mmHg 76%
05:00 +4°C° 0 mm 4 mps 759 mmHg 73%
06:00 +4°C° 0 mm 4 mps 760 mmHg 70%
07:00 +3°C° 0 mm 5 mps 760 mmHg 67%
08:00 +6°C° 0 mm 5 mps 760 mmHg 61%
09:00 +8°C° 0 mm 5 mps 760 mmHg 54%
10:00 +10°C° 0 mm 6 mps 760 mmHg 47%
11:00 +11°C° 0 mm 6 mps 760 mmHg 45%
12:00 +13°C° 0 mm 6 mps 759 mmHg 43%
13:00 +14°C° 0 mm 6 mps 759 mmHg 40%
14:00 +14°C° 0 mm 6 mps 758 mmHg 41%
15:00 +14°C° 0 mm 5 mps 758 mmHg 42%
16:00 +14°C° 0 mm 5 mps 758 mmHg 43%
17:00 +13°C° 0 mm 5 mps 759 mmHg 46%
18:00 +12°C° 0 mm 5 mps 759 mmHg 49%
19:00 +9°C° 0 mm 6 mps 760 mmHg 52%
20:00 +8°C° 0 mm 6 mps 760 mmHg 57%
21:00 +7°C° 0 mm 5 mps 761 mmHg 62%
22:00 +6°C° 0 mm 5 mps 761 mmHg 68%
23:00 +5°C° 0 mm 5 mps 761 mmHg 71%

Tomorrow, 6 August, Thursday

Time Temperature Precipitation Wind Pressure Humidity
00:00 +5°C° 0 mm 4 mps 761 mmHg 74%
01:00 +4°C° 0 mm 4 mps 762 mmHg 77%
02:00 +4°C° 0 mm 4 mps 762 mmHg 79%
03:00 +3°C° 0 mm 4 mps 762 mmHg 81%
04:00 +3°C° 0 mm 4 mps 762 mmHg 82%
05:00 +3°C° 0 mm 4 mps 762 mmHg 83%
06:00 +3°C° 0 mm 3 mps 762 mmHg 84%
07:00 +2°C° 0 mm 3 mps 763 mmHg 84%
08:00 +5°C° 0 mm 3 mps 763 mmHg 74%
09:00 +8°C° 0 mm 3 mps 763 mmHg 64%
10:00 +10°C° 0 mm 3 mps 763 mmHg 54%
11:00 +13°C° 0 mm 2 mps 763 mmHg 49%
12:00 +14°C° 0 mm 2 mps 762 mmHg 45%
13:00 +15°C° 0 mm 2 mps 762 mmHg 40%
14:00 +15°C° 0 mm 2 mps 762 mmHg 44%
15:00 +14°C° 0 mm 2 mps 762 mmHg 48%
16:00 +14°C° 0 mm 2 mps 763 mmHg 52%
17:00 +12°C° 0 mm 2 mps 763 mmHg 57%
18:00 +9°C° 0 mm 2 mps 764 mmHg 63%
19:00 +7°C° 0 mm 2 mps 765 mmHg 68%
20:00 +7°C° 0 mm 2 mps 765 mmHg 70%
21:00 +7°C° 0 mm 2 mps 765 mmHg 72%
22:00 +7°C° 0 mm 3 mps 766 mmHg 73%
23:00 +6°C° 0 mm 2 mps 766 mmHg 75%

Day after tomorrow, 7 August, Friday

Time Temperature Precipitation Wind Pressure Humidity
00:00 +6°C° 0 mm 2 mps 766 mmHg 76%
01:00 +6°C° 0 mm 2 mps 766 mmHg 77%
02:00 +7°C° 0 mm 1 mps 766 mmHg 79%
03:00 +7°C° 0 mm 1 mps 765 mmHg 80%
04:00 +7°C° 0 mm 1 mps 765 mmHg 81%
05:00 +7°C° 0 mm 1 mps 766 mmHg 81%
06:00 +7°C° 0 mm 1 mps 766 mmHg 81%
07:00 +7°C° 0 mm 1 mps 766 mmHg 81%
08:00 +10°C° 0 mm 1 mps 766 mmHg 74%
09:00 +12°C° 0 mm 1 mps 766 mmHg 67%
10:00 +14°C° 0 mm 1 mps 765 mmHg 60%
11:00 +15°C° 0 mm 1 mps 765 mmHg 59%
12:00 +16°C° 0 mm 2 mps 764 mmHg 58%
13:00 +17°C° 0 mm 2 mps 763 mmHg 57%
14:00 +16°C° 0 mm 2 mps 764 mmHg 61%
15:00 +14°C° 0 mm 3 mps 764 mmHg 65%
16:00 +14°C° 0 mm 3 mps 764 mmHg 68%
17:00 +13°C° 0 mm 4 mps 764 mmHg 70%
18:00 +13°C° 0 mm 5 mps 763 mmHg 71%
19:00 +12°C° 0 mm 5 mps 763 mmHg 73%
20:00 +12°C° 0.4 mm 5 mps 763 mmHg 80%
21:00 +12°C° 0.4 mm 5 mps 763 mmHg 87%
22:00 +10°C° 0.4 mm 5 mps 763 mmHg 94%
23:00 +10°C° 0.1 mm 5 mps 763 mmHg 94%

8 August, Saturday

Time Temperature Precipitation Wind Pressure Humidity
00:00 +10°C° 0.1 mm 5 mps 762 mmHg 94%
01:00 +10°C° 0.1 mm 5 mps 762 mmHg 94%
02:00 +12°C° 0 mm 5 mps 761 mmHg 94%
03:00 +12°C° 0 mm 5 mps 761 mmHg 94%
04:00 +11°C° 0 mm 6 mps 760 mmHg 93%
05:00 +12°C° 0 mm 5 mps 760 mmHg 94%
06:00 +12°C° 0 mm 5 mps 760 mmHg 95%
07:00 +10°C° 0 mm 5 mps 760 mmHg 96%
08:00 +12°C° 0.5 mm 5 mps 760 mmHg 94%
09:00 +13°C° 0.5 mm 4 mps 760 mmHg 92%
10:00 +14°C° 0.5 mm 4 mps 760 mmHg 90%
11:00 +16°C° 0.3 mm 3 mps 759 mmHg 87%
12:00 +17°C° 0.3 mm 2 mps 758 mmHg 84%
13:00 +18°C° 0.3 mm 1 mps 757 mmHg 81%
14:00 +18°C° 0.4 mm 1 mps 756 mmHg 82%
15:00 +18°C° 0.4 mm 1 mps 756 mmHg 84%
16:00 +16°C° 0.4 mm 0 mps 756 mmHg 86%
17:00 +16°C° 0.3 mm 2 mps 756 mmHg 87%
18:00 +13°C° 0.3 mm 3 mps 756 mmHg 88%
19:00 +12°C° 0.3 mm 4 mps 756 mmHg 89%
20:00 +12°C° 0 mm 4 mps 757 mmHg 89%
21:00 +11°C° 0 mm 4 mps 757 mmHg 89%
22:00 +10°C° 0 mm 5 mps 757 mmHg 89%
23:00 +9°C° 0 mm 5 mps 757 mmHg 89%

9 August, Sunday

Time Temperature Precipitation Wind Pressure Humidity
00:00 +8°C° 0 mm 4 mps 757 mmHg 90%
01:00 +7°C° 0 mm 4 mps 757 mmHg 91%
02:00 +7°C° 0 mm 4 mps 756 mmHg 91%
03:00 +7°C° 0 mm 5 mps 756 mmHg 90%
04:00 +7°C° 0 mm 5 mps 756 mmHg 90%
05:00 +7°C° 0 mm 5 mps 756 mmHg 89%
06:00 +7°C° 0 mm 5 mps 756 mmHg 88%
07:00 +7°C° 0 mm 5 mps 756 mmHg 88%
08:00 +8°C° 0 mm 6 mps 755 mmHg 80%
09:00 +10°C° 0 mm 6 mps 755 mmHg 72%
10:00 +11°C° 0 mm 7 mps 755 mmHg 65%
11:00 +12°C° 0 mm 7 mps 754 mmHg 62%
12:00 +14°C° 0 mm 7 mps 754 mmHg 60%
13:00 +14°C° 0 mm 7 mps 753 mmHg 58%
14:00 +14°C° 0 mm 7 mps 752 mmHg 60%
15:00 +12°C° 0 mm 7 mps 752 mmHg 62%
16:00 +12°C° 0 mm 7 mps 752 mmHg 64%
17:00 +11°C° 0 mm 7 mps 752 mmHg 66%
18:00 +10°C° 0 mm 7 mps 752 mmHg 69%
19:00 +10°C° 0 mm 7 mps 752 mmHg 72%
20:00 +9°C° 0.1 mm 6 mps 752 mmHg 74%
21:00 +9°C° 0.1 mm 6 mps 752 mmHg 76%
22:00 +9°C° 0.1 mm 5 mps 752 mmHg 78%
23:00 +8°C° 0 mm 5 mps 752 mmHg 80%

10 August, Monday

Time Temperature Precipitation Wind Pressure Humidity
00:00 +8°C° 0 mm 5 mps 752 mmHg 83%
01:00 +8°C° 0 mm 5 mps 752 mmHg 85%
02:00 +8°C° 0.8 mm 4 mps 752 mmHg 88%
03:00 +10°C° 0.8 mm 4 mps 752 mmHg 91%
04:00 +10°C° 0.8 mm 3 mps 752 mmHg 95%
05:00 +10°C° 0.8 mm 6 mps 753 mmHg 93%
06:00 +11°C° 0.8 mm 8 mps 754 mmHg 91%
07:00 +12°C° 0.8 mm 10 mps 755 mmHg 90%
08:00 +12°C° 0.7 mm 11 mps 756 mmHg 88%
09:00 +12°C° 0.7 mm 11 mps 757 mmHg 86%
10:00 +12°C° 0.7 mm 11 mps 758 mmHg 85%
11:00 +13°C° 0.2 mm 10 mps 759 mmHg 80%
12:00 +13°C° 0.2 mm 9 mps 759 mmHg 76%
13:00 +15°C° 0.2 mm 9 mps 760 mmHg 71%
14:00 +13°C° 0.1 mm 8 mps 760 mmHg 71%
15:00 +13°C° 0.1 mm 8 mps 761 mmHg 71%
16:00 +14°C° 0.1 mm 7 mps 762 mmHg 70%
17:00 +12°C° 0.1 mm 7 mps 762 mmHg 73%
18:00 +11°C° 0.1 mm 6 mps 763 mmHg 76%
19:00 +10°C° 0.1 mm 6 mps 764 mmHg 80%
20:00 +10°C° 0.1 mm 5 mps 764 mmHg 81%
21:00 +9°C° 0.1 mm 5 mps 765 mmHg 83%
22:00 +9°C° 0.1 mm 5 mps 765 mmHg 85%
23:00 +10°C° 0.1 mm 4 mps 765 mmHg 85%
Show more